[[{"header":{"parameterUnit":"m.s-1","parameterCategory":1,"la1":30.2991,"la2":30.254,"lo1":-89.0895,"lo2":-89.0444,"dy":0.0017,"dx":0.0017,"nx":28,"ny":28,"refTime":"2025-09-12T21:00:00:Z","depth":0,"parameterNumber":2,"parameterNumberName":"U-component_of_WINDS"},"data":[0,0,0,0,0,0,0,0,0,0,0,0,0,0,0,0,0,0,0,0,0,0,0,0,0,0,0,0,0,0,0,0,0,0,0,0,0,0,0,0,0,0,0,0,0,0,0,0,0,0,0,0,0,0,0,0,0,0,-2.0349,-2.0349,0,-2.034,-2.034,-2.034,-2.0305,-2.0304,-2.0303,-2.0302,-2.0292,-2.0292,-2.0293,0,0,0,0,0,0,0,0,0,0,0,0,0,-2.0337,-2.0337,-2.0349,-2.0349,-2.0349,-2.034,-2.034,-2.034,-2.0305,-2.0304,-2.0303,-2.0302,-2.0292,-2.0292,-2.0293,0,0,0,0,0,0,0,0,0,0,0,0,0,-2.0336,-2.0337,-2.0349,-2.033,-2.0329,-2.034,-2.034,-2.034,-2.0305,-2.0304,-2.0303,-2.0302,-2.0291,-2.0292,-2.0293,-2.0321,0,0,-2.0295,-2.0295,0,0,0,0,0,0,0,0,-2.0336,-2.0337,-2.0333,-2.0332,-2.033,-2.0322,-2.0332,-2.0333,-2.0305,-2.0314,-2.0302,-2.0301,-2.0303,-2.0302,-2.0303,-2.0321,-2.032,-2.0295,-2.0295,-2.0296,-2.0296,0,0,0,0,0,0,0,-2.0336,-2.0337,-2.0345,-2.0333,-2.0331,-2.0323,-2.0321,-2.0332,-2.0315,-2.0313,-2.0311,-2.031,-2.0302,-2.0303,-2.0303,-2.032,-2.0295,-2.0296,-2.0296,-2.0296,-2.0361,-2.0363,0,0,0,0,0,0,-2.0339,-2.0337,-2.0346,-2.0345,-2.033,-2.0324,-2.0322,-2.0326,-2.0315,-2.0312,-2.0311,-2.0308,-2.0302,-2.0302,-2.0302,-2.0335,-2.0296,-2.0296,-2.0297,-2.036,-2.0362,-2.0363,0,0,0,0,0,0,-2.0339,-2.034,-2.0346,-2.0341,-2.0341,-2.0325,-2.033,-2.0326,-2.0327,-2.0313,-2.031,-2.0315,-2.0301,-2.0301,-2.0317,-2.0334,-2.0297,-2.0297,-2.0359,-2.0361,-2.0362,-2.0401,0,0,0,0,0,0,-2.0339,-2.034,-2.0351,-2.0341,-2.0341,-2.0361,-2.0331,-2.0327,-2.0329,-2.0325,-2.0317,-2.0314,-2.03,-2.0316,-2.0318,-2.0335,-2.0298,-2.0357,-2.036,-2.0362,-2.0398,-2.0404,-2.0409,0,0,0,0,0,-2.0338,-2.0361,-2.0351,-2.0353,-2.0354,-2.0362,-2.0362,-2.0346,-2.033,-2.0341,-2.0332,-2.0314,-2.0333,-2.0318,-2.032,-2.0337,-2.0356,-2.0359,-2.0362,-2.0396,-2.0403,-2.0409,0,0,0,0,0,0,-2.0373,-2.036,-2.0348,-2.0369,-2.0367,-2.0356,-2.0369,-2.0354,-2.0356,-2.0353,-2.0333,-2.0331,-2.035,-2.0345,-2.0329,-2.0365,-2.0341,-2.0345,-2.0367,-2.0374,-2.0379,-2.0379,-2.0298,0,0,0,0,0,-2.0383,-2.0391,-2.0379,-2.0398,-2.0398,-2.0384,-2.0387,-2.0375,-2.0372,-2.0371,-2.0363,-2.0361,-2.0366,-2.037,-2.0374,-2.0398,-2.0396,-2.0411,-2.0417,-2.0421,-2.0424,-2.0437,-2.0444,-2.0373,-2.0373,-2.0373,0,0,-2.0403,-2.0397,-2.0403,-2.0405,-2.0402,-2.0411,-2.0383,-2.0393,-2.04,-2.0372,-2.0386,-2.0381,-2.0377,-2.0398,-2.0406,-2.0394,-2.0443,-2.0425,-2.0429,-2.0429,-2.0441,-2.0448,-2.0454,-2.0375,-2.0375,-2.0374,0,0,-2.0445,-2.0441,-2.0457,-2.0456,-2.0452,-2.0443,-2.0447,-2.0439,-2.0434,-2.0449,-2.0429,-2.0436,-2.0446,-2.0444,-2.0444,-2.0488,-2.0472,-2.049,-2.0519,-2.0532,-2.0538,-2.0542,-2.0558,-2.0564,-2.0493,-2.0493,-2.0494,0,-2.0471,-2.0483,-2.0467,-2.0479,-2.0481,-2.0458,-2.0474,-2.0473,-2.0471,-2.0473,-2.046,-2.0472,-2.0468,-2.0488,-2.0499,-2.05,-2.0504,-2.049,-2.0538,-2.0543,-2.0547,-2.0562,-2.0568,-2.0496,-2.0495,-2.0495,-2.0495,0,-2.0515,-2.0525,-2.0538,-2.0538,-2.0541,-2.0555,-2.0542,-2.0547,-2.0536,-2.0528,-2.0544,-2.0539,-2.0541,-2.0546,-2.0534,-2.0565,-2.0557,-2.0542,-2.0518,-2.0556,-2.057,-2.0575,-2.0499,-2.0498,-2.0497,-2.0497,0,0,-2.0576,-2.0569,-2.0574,-2.0574,-2.0569,-2.0576,-2.059,-2.0593,-2.0599,-2.0599,-2.061,-2.0619,-2.0605,-2.0606,-2.0594,-2.0606,-2.0642,-2.0589,-2.0589,-2.0599,-2.0676,-2.0687,-2.0694,-2.0632,-2.0633,-2.0634,-2.0676,0,-2.0616,-2.0639,-2.0626,-2.0651,-2.066,-2.0639,-2.0651,-2.065,-2.0644,-2.065,-2.0643,-2.0651,-2.0631,-2.0632,-2.0643,-2.0635,-2.0657,-2.0632,-2.0642,-2.0642,-2.0642,-2.0701,-2.0713,-2.0753,-2.0681,-2.0682,-2.0683,0,-2.0665,-2.0668,-2.0694,-2.0689,-2.0692,-2.0703,-2.0706,-2.0713,-2.0712,-2.0706,-2.0709,-2.0695,-2.0708,-2.0686,-2.0704,-2.0688,-2.0691,-2.0689,-2.069,-2.0689,-2.0664,-2.0701,-2.0765,-2.0771,-2.0691,-2.069,-2.069,0,-2.0707,-2.0718,-2.0735,-2.0735,-2.073,-2.0738,-2.0737,-2.0734,-2.0738,-2.0741,-2.0743,-2.0747,-2.075,-2.0754,-2.0742,-2.0726,-2.0762,-2.0738,-2.0758,-2.0758,-2.0765,-2.0765,-2.083,-2.0769,-2.0769,-2.0769,-2.0769,0,-2.0752,-2.0769,-2.0754,-2.0764,-2.0782,-2.0768,-2.0787,-2.0783,-2.0781,-2.0791,-2.0773,-2.0782,-2.0767,-2.0774,-2.0765,-2.0782,-2.0784,-2.078,-2.0777,-2.0781,-2.0781,-2.0782,-2.0778,-2.077,-2.077,-2.077,-2.0769,0,-2.0801,-2.0792,-2.0809,-2.0804,-2.0803,-2.0816,-2.0811,-2.0821,-2.0815,-2.0827,-2.0829,-2.0819,-2.0827,-2.0816,-2.0824,-2.0818,-2.0841,-2.0834,-2.0841,-2.0839,-2.0859,-2.0857,-2.0926,-2.0934,-2.0869,-2.087,-2.087,0,-2.083,-2.0843,-2.0839,-2.0845,-2.0844,-2.0853,-2.0857,-2.0844,-2.0849,-2.0849,-2.0859,-2.0866,-2.0871,-2.0886,-2.0879,-2.0885,-2.0878,-2.0902,-2.0879,-2.0883,-2.0878,-2.0877,-2.0878,-2.0906,-2.0907,-2.0908,-2.0908,0,-2.0883,-2.0878,-2.0885,-2.089,-2.0896,-2.0899,-2.0902,-2.0907,-2.0894,-2.09,-2.0909,-2.0913,-2.0922,-2.0929,-2.0934,-2.0932,-2.0918,-2.0916,-2.0921,-2.0924,-2.0928,-2.0926,-2.0854,-2.0914,-2.0913,-2.0913,-2.0913,-2.0912,-2.0923,-2.0933,-2.0933,-2.0941,-2.0942,-2.0945,-2.0954,-2.0949,-2.0956,-2.0962,-2.0954,-2.0966,-2.0965,-2.097,-2.097,-2.0979,-2.0969,-2.0975,-2.0977,-2.0979,-2.0982,-2.0927,-2.098,-2.098,-2.0979,-2.0979,-2.0979,0,-2.0975,-2.0974,-2.0981,-2.0986,-2.0992,-2.098,-2.0982,-2.0989,-2.0999,-2.1,-2.1006,-2.1017,-2.1025,-2.1019,-2.1026,-2.1034,-2.1028,-2.1036,-2.1035,-2.1035,-2.0991,-2.0986,-2.1041,-2.1041,-2.1041,-2.1041,-2.1041,-2.1041,-2.1002,-2.1019,-2.1015,-2.1033,-2.1031,-2.1043,-2.1045,-2.1048,-2.1049,-2.1062,-2.1069,-2.1066,-2.1064,-2.1071,-2.1078,-2.1076,-2.1079,-2.109,-2.1086,-2.1044,-2.1038,-2.1032,-2.1027,-2.1091,-2.1091,-2.1129,-2.113,-2.113]},{"header":{"parameterUnit":"m.s-1","parameterCategory":1,"la1":30.2991,"la2":30.254,"lo1":-89.0895,"lo2":-89.0444,"dy":0.0017,"dx":0.0017,"nx":28,"ny":28,"refTime":"2025-09-12T21:00:00:Z","depth":0,"parameterNumber":3,"parameterNumberName":"V-component_of_WINDS"},"data":[0,0,0,0,0,0,0,0,0,0,0,0,0,0,0,0,0,0,0,0,0,0,0,0,0,0,0,0,0,0,0,0,0,0,0,0,0,0,0,0,0,0,0,0,0,0,0,0,0,0,0,0,0,0,0,0,0,0,2.8023,2.8023,0,2.7979,2.7978,2.7978,2.7996,2.7997,2.7998,2.7999,2.7947,2.7945,2.7942,0,0,0,0,0,0,0,0,0,0,0,0,0,2.8117,2.8115,2.8023,2.8023,2.8022,2.7979,2.7978,2.7978,2.7996,2.7997,2.7999,2.8,2.7948,2.7945,2.7942,0,0,0,0,0,0,0,0,0,0,0,0,0,2.8075,2.8115,2.8023,2.8026,2.8026,2.7979,2.7978,2.7977,2.7996,2.7997,2.7999,2.8,2.7949,2.7945,2.7942,2.7887,0,0,2.7931,2.7929,0,0,0,0,0,0,0,0,2.8077,2.8071,2.8026,2.8026,2.8026,2.7995,2.7992,2.7947,2.7995,2.8007,2.7999,2.8001,2.7961,2.7957,2.7945,2.7885,2.7883,2.793,2.7928,2.7927,2.7926,0,0,0,0,0,0,0,2.808,2.8073,2.8005,2.8025,2.8025,2.8028,2.8023,2.7984,2.7975,2.8006,2.8007,2.8002,2.7961,2.7948,2.7944,2.7882,2.7931,2.7927,2.7925,2.7924,2.7774,2.7773,0,0,0,0,0,0,2.8084,2.8076,2.8007,2.8004,2.8056,2.8025,2.802,2.8003,2.7976,2.7973,2.8001,2.8003,2.7953,2.7948,2.7942,2.7876,2.7927,2.7923,2.7921,2.7776,2.7774,2.7772,0,0,0,0,0,0,2.8086,2.8078,2.8009,2.804,2.8032,2.8021,2.8002,2.8001,2.7988,2.7972,2.797,2.7989,2.7954,2.7947,2.7901,2.7874,2.7922,2.7919,2.7778,2.7776,2.7773,2.7743,0,0,0,0,0,0,2.8089,2.8078,2.8059,2.804,2.803,2.797,2.8,2.7999,2.7983,2.7985,2.7961,2.7958,2.7955,2.7906,2.7897,2.787,2.7916,2.7781,2.7777,2.7774,2.7747,2.774,2.7734,0,0,0,0,0,2.8092,2.8051,2.8058,2.8049,2.8006,2.7969,2.7963,2.7962,2.798,2.796,2.795,2.7959,2.7879,2.7902,2.7892,2.7863,2.7782,2.7778,2.7774,2.7749,2.7741,2.7734,0,0,0,0,0,0,2.8064,2.8048,2.8056,2.8008,2.799,2.7972,2.7946,2.7954,2.7928,2.7932,2.793,2.7924,2.7877,2.7865,2.7891,2.7808,2.7833,2.7827,2.7817,2.781,2.7803,2.7806,2.7913,0,0,0,0,0,2.8053,2.8027,2.8013,2.7972,2.7963,2.7956,2.794,2.7941,2.7922,2.7913,2.79,2.7878,2.7849,2.7829,2.78,2.7746,2.774,2.7721,2.7715,2.771,2.7703,2.7673,2.7664,2.7759,2.7759,2.7759,0,0,2.8029,2.8017,2.8,2.7966,2.7952,2.7923,2.7949,2.7917,2.7894,2.7908,2.7864,2.7853,2.7829,2.7779,2.7756,2.7768,2.7676,2.7704,2.77,2.7697,2.7668,2.7659,2.7651,2.7756,2.7756,2.7757,0,0,2.7969,2.7958,2.7923,2.7909,2.7889,2.7885,2.7876,2.7857,2.7851,2.7808,2.7818,2.779,2.7739,2.7721,2.7705,2.764,2.7647,2.7631,2.7598,2.7568,2.756,2.7554,2.7529,2.7521,2.7626,2.7625,2.7625,0,2.7941,2.7899,2.7903,2.787,2.7854,2.7868,2.783,2.7816,2.7786,2.7774,2.7789,2.7725,2.771,2.7655,2.764,2.7627,2.7616,2.7633,2.7562,2.7555,2.7549,2.7525,2.7516,2.7623,2.7624,2.7624,2.7624,0,2.7864,2.7835,2.7808,2.7782,2.7764,2.7728,2.7725,2.7706,2.7709,2.7703,2.7658,2.7641,2.7609,2.7596,2.7598,2.7541,2.7549,2.7563,2.7587,2.7538,2.7516,2.7507,2.7621,2.7621,2.7622,2.7622,0,0,2.7784,2.7762,2.7752,2.774,2.7719,2.7696,2.7661,2.7632,2.7615,2.7594,2.7564,2.7521,2.7533,2.7516,2.7516,2.749,2.7438,2.7506,2.7506,2.7493,2.7373,2.7362,2.7352,2.7444,2.7442,2.7441,2.7375,0,2.7722,2.7664,2.7666,2.7611,2.7583,2.7596,2.7565,2.7548,2.7541,2.7515,2.7507,2.7477,2.7496,2.7485,2.7461,2.745,2.7414,2.7455,2.7413,2.7411,2.7417,2.7341,2.7329,2.7268,2.7366,2.7365,2.7364,0,2.7642,2.7621,2.7563,2.7547,2.7535,2.7508,2.7482,2.7457,2.7438,2.7435,2.7416,2.742,2.7383,2.741,2.7358,2.7386,2.7369,2.7361,2.7359,2.7353,2.7384,2.7332,2.7248,2.7239,2.7351,2.7352,2.7353,0,2.7588,2.7545,2.7505,2.7495,2.7475,2.7455,2.7446,2.7428,2.7411,2.7387,2.7376,2.7347,2.7331,2.7309,2.7305,2.7325,2.7252,2.7279,2.7246,2.7246,2.7229,2.7229,2.714,2.722,2.722,2.7221,2.7221,0,2.7518,2.7481,2.7481,2.7456,2.7415,2.7418,2.7377,2.7369,2.7353,2.7325,2.7334,2.7308,2.7305,2.7277,2.7274,2.723,2.7223,2.7218,2.7217,2.7216,2.7217,2.7204,2.7208,2.7218,2.7219,2.7219,2.722,0,2.745,2.7448,2.7405,2.7391,2.7386,2.7357,2.7343,2.7318,2.7314,2.7279,2.727,2.7262,2.7229,2.7224,2.7185,2.7183,2.713,2.7135,2.7138,2.7138,2.7105,2.7108,2.7003,2.6989,2.708,2.7079,2.7078,0,2.7404,2.7377,2.736,2.7344,2.7334,2.7306,2.7289,2.7291,2.7272,2.7248,2.7226,2.7195,2.717,2.7118,2.7106,2.7077,2.7079,2.7045,2.7075,2.7075,2.7077,2.7078,2.7075,2.7038,2.7037,2.7036,2.7036,0,2.7323,2.7324,2.73,2.7276,2.7257,2.7237,2.7219,2.7204,2.7203,2.7181,2.715,2.7131,2.7092,2.7061,2.7032,2.7019,2.7026,2.7027,2.7018,2.7016,2.7018,2.7015,2.712,2.7029,2.7029,2.703,2.703,2.7031,2.7264,2.724,2.7225,2.7198,2.7185,2.7168,2.7145,2.7138,2.7112,2.7082,2.7084,2.7049,2.703,2.6992,2.6978,2.6949,2.696,2.6946,2.6943,2.6939,2.6935,2.7024,2.6943,2.6944,2.6944,2.6944,2.6944,0,2.7182,2.7174,2.7149,2.7125,2.7103,2.7115,2.7095,2.7076,2.7046,2.7028,2.7004,2.6967,2.6937,2.6925,2.6894,2.6874,2.6876,2.6865,2.6866,2.6863,2.6928,2.6939,2.6864,2.6864,2.6864,2.6864,2.6864,2.6864,2.7137,2.7098,2.7097,2.7051,2.7042,2.7009,2.6997,2.698,2.6966,2.6926,2.6902,2.6895,2.6878,2.6847,2.682,2.6817,2.6804,2.6792,2.679,2.685,2.6858,2.6866,2.6876,2.6789,2.6789,2.6727,2.6727,2.6726]}]]